Вернуться в каталог

FENGYUN 1C DEB

АктивенSSO
NORAD 30355·DEBRIS·🇨🇳 China

Запущен May 10, 1999 с Taiyuan Satellite Launch Center

Loading…

Ближайшие Пролёты (ближайшие 24 часа)

TLE

СвежийSource: Space-Track

Эпоха: Sep 13, 2026, 12:46 UTC

1 30355U 99025ABS 26256.53243222  .00000783  00000-0  38681-3 0  9992
2 30355  98.5937 257.5545 0052090 234.9807 251.4320 14.19489799 12361

Отслеживайте FENGYUN 1C DEB в реальном времени с AllMySat

Download on the App Store